Location: Newark
(0.5300°S, 127.4800°E)
Time: 17:31:55
(UTC+00:00)

Vanguard 3 - Pass Details

Date: 20 September 2019
Orbit: 508 x 3262 km, 33.3° (Epoch: 20 October)

Event Time Altitude Azimuth Distance (km) Brightness Sun altitude
Rises 02:54:28 0° 313° (NW) 7,056 11.9 82.5°
Reaches altitude 10° 03:02:10 10° 331° (NNW) 6,186 11.8 84.3°
Maximum altitude 03:13:53 18° 8° (N) 5,366 11.6 87.0°
Drops below altitude 10° 03:24:21 10° 45° (NE) 5,519 11.6 88.2°
Sets 03:30:27 0° 63° (ENE) 6,069 11.6 87.6°
